Location: De Har
(53.3413°N, 6.6858°E)
Time: 20:59:56
(UTC+00:00)

Meteor 2-6 Rocket - Pass Details

Date: 22 April 2026
Orbit: 805 x 913 km, 81.3° (Epoch: 21 May)

Event Time Altitude Azimuth Distance (km) Brightness Sun altitude
Exits shadow 01:49:06 29° 195° (SSW) 1,555 5.0 -18.2°
Maximum altitude 01:52:12 85° 284° (WNW) 901 4.3 -18.0°
Drops below altitude 10° 01:58:09 10° 13° (NNE) 2,597 7.7 -17.4°
Sets 02:00:39 0° 14° (NNE) 3,551 8.7 -17.2°
